This is the latest recevied weather packets stored in our database for station/object SQ7KHZ-10. If no packets are shown the sender has not sent any weather packets the latest 10 day(s).
| Time | Temp. | Humidity | Pressure | Rain* | Wind** | Luminosity | Snow |
|---|---|---|---|---|---|---|---|
| 1777757557 | 10.56° C | 75% | 1019.7 hPa | 0 mm | - | - | - |
| 1777756357 | 11.67° C | 72% | 1019.7 hPa | 0 mm | - | - | - |
| 1777755145 | 12.22° C | 69% | 1019.9 hPa | 0 mm | - | - | - |
| 1777753945 | 12.22° C | 69% | 1020 hPa | 0 mm | - | - | - |
| 1777752733 | 12.78° C | 69% | 1020 hPa | 0 mm | - | - | - |
| 1777751533 | 13.89° C | 63% | 1020 hPa | 0 mm | - | - | - |
| 1777750333 | 14.44° C | 62% | 1020 hPa | 0 mm | - | - | - |
| 1777749132 | 14.44° C | 65% | 1020 hPa | 0 mm | - | - | - |
| 1777747931 | 15.56° C | 53% | 1020 hPa | 0 mm | - | - | - |
| 1777746716 | 16.11° C | 54% | 1019.9 hPa | 0 mm | - | - | - |
| 1777745516 | 16.67° C | 54% | 1019.9 hPa | 0 mm | - | - | - |
| 1777744305 | 18.33° C | 49% | 1019.8 hPa | 0 mm | - | - | - |
| 1777743092 | 18.89° C | 49% | 1019.8 hPa | 0 mm | - | - | - |
| 1777741881 | 20° C | 45% | 1019.9 hPa | 0 mm | - | - | - |
| 1777740669 | 23.89° C | 39% | 1020 hPa | 0 mm | - | - | - |
| 1777739457 | 23.89° C | 39% | 1020.1 hPa | 0 mm | - | - | - |
| 1777738245 | 23.33° C | 38% | 1020.2 hPa | 0 mm | - | - | - |
| 1777737043 | 22.78° C | 33% | 1020.5 hPa | 0 mm | - | - | - |
| 1777735836 | 23.33° C | 32% | 1020.7 hPa | 0 mm | - | - | - |
| 1777734631 | 22.78° C | 32% | 1021 hPa | 0 mm | - | - | - |
| 1777733423 | 23.33° C | 34% | 1021.1 hPa | 0 mm | - | - | - |
| 1777732218 | 23.89° C | 28% | 1021.2 hPa | 0 mm | - | - | - |
| 1777731012 | 23.33° C | 32% | 1021.4 hPa | 0 mm | - | - | - |
| 1777729811 | 23.89° C | 35% | 1021.6 hPa | 0 mm | - | - | - |
| 1777728605 | 24.44° C | 33% | 1021.8 hPa | 0 mm | - | - | - |
* Rain latest hour (hover to see other rain measurements)
** Current wind speed in m/s (hover to see current wind gust speed)